Вернуться в каталог

STARLINK-30758

АктивенСвязьVLEO
NORAD 58133·PAYLOAD·🇺🇸 United States

Запущен Oct 22, 2023 с Cape Canaveral Space Force Station

Loading…

Ближайшие Пролёты (ближайшие 24 часа)

TLE

СвежийSource: CelesTrak SupGP

Эпоха: Sep 14, 2026, 22:00 UTC

1 58133C 23162R   26257.91715278 -.00006711  00000+0 -24316-3 0  2578
2 58133  42.9988 140.5766 0001402 271.2909 147.0971 15.27570503    13

Отслеживайте STARLINK-30758 в реальном времени с AllMySat

Download on the App Store